Regional Weather Roundup
Issued by NWS Cleveland, OH

Home | Current Version | Previous Version | Graphics & Text | Print | Product List | Glossary On
Versions: 1 2 3 4 5 6 7 8 9 10 11 12 13 14 15 16 17 18 19 20 21 22 23 24 25 26 27 28 29 30 31 32 33 34 35 36 37 38 39 40 41 42 43 44 45 46 47 48 49 50
000
ASUS41 KCLE 311800
RWRCLE
OHIO REGIONAL WEATHER ROUNDUP
NATIONAL WEATHER SERVICE WILMINGTON, OH
200 PM EDT TUE MAY 31 2016

NOTE: "FAIR" INDICATES FEW OR NO CLOUDS BELOW 12,000 FEET WITH NO
SIGNIFICANT WEATHER AND/OR OBSTRUCTIONS TO VISIBILITY.

OHZ001>008-015>018-024>027-034-035-043-044-311900-
   NORTHWEST OHIO

CITY           SKY/WX    TMP DP  RH WIND       PRES   REMARKS
DEFIANCE       FAIR      83  48  29 E7        30.02F
FINDLAY        FAIR      84  53  34 NE12      30.01F
TOLEDO EXPRESS FAIR      80  51  36 E7        30.03S
TOLEDO EXEC    FAIR      79  53  40 E9        30.04S
LIMA           FAIR      83  52  34 N5        30.01F
$$

OHZ009>014-019>023-028>033-038-089-311900-
   NORTHEAST OHIO

CITY           SKY/WX    TMP DP  RH WIND       PRES   REMARKS
CLE-HOPKINS    PTSUNNY   77  57  50 NE15      30.05S
CLE-LAKEFRONT  FAIR      72  64  76 N12       30.02F
CUY CO. ARPT   PTSUNNY   79  61  53 NE12      30.04F
LORAIN-ELYRIA  FAIR      78  57  48 E15       30.04S
ASHTABULA      FAIR      78  56  46 N9        30.05S
AKRON-CANTON   PTSUNNY   84  52  33 CALM      30.01F
WOOSTER        NOT AVBL
MANSFIELD      FAIR      84  57  39 NW7       30.03F
YOUNGSTOWN     CLOUDY    83  55  38 CALM      30.02F
$$

OHZ042-051>053-060>062-070>072-077>081-311900-
  SOUTHWEST OHIO

CITY           SKY/WX    TMP DP  RH WIND       PRES   REMARKS
CINC-COVINGTON CLOUDY    84  60  44 NW7       29.99F
CINC-LUNKEN    PTSUNNY   84  58  40 NE3       29.98F
HAMILTON       CLOUDY    82  70  66 SW3       29.99F
DAYTON         NOT AVBL
WRIGHT-PAT AFB NOT AVBL
DAYTON GENERAL PTSUNNY   84  55  36 VRB7      29.99F
WILMINGTON     PTSUNNY   84  56  38 CALM      30.00F
$$

OHZ036-037-039>041-045>050-054>059-063>069-073>076-082>088-311900-
  CENTRAL AND SOUTHEAST OHIO

CITY           SKY/WX    TMP DP  RH WIND       PRES   REMARKS
COLUMBUS       PTSUNNY   85  55  35 CALM      29.98F
OSU AIRPORT    FAIR      85  55  35 CALM      29.99F
BOLTON FIELD   MOSUNNY  N/A N/A N/A NW5       29.99F
RICKENBACK AFB NOT AVBL
NEWARK         FAIR      87  53  31 CALM      29.98F
MARION         FAIR      85  51  31 NW3       30.01F
LANCASTER      FAIR      88  56  33 N6        29.99F
ZANESVILLE     FAIR      88  58  36 NW9       29.99F
NEW PHILLY     FAIR      88  50  27 VRB5      30.00F
$$




USA.gov is the U.S. government's official web portal to all federal, state and local government web resources and services.